Back to catalog

PLEIADES-ORPHEUS

AliveScienceVLEO
NORAD 62387·PAYLOAD·🇺🇸 United States
This satellite name has not been confirmed by official sources yet.

Launched Dec 21, 2024 from Vandenberg Space Force Base

Loading…

Next Passes (next 24 hours)

TLE

FreshSource: Space-Track

Epoch: Sep 14, 2026, 13:58 UTC

1 62387U 24247L   26257.58211018  .00062750  00000-0  68821-3 0  9991
2 62387  44.9863  97.9685 0008278 221.0636 138.9638 15.62399217 97426

Track PLEIADES-ORPHEUS in real time with AllMySat

Download on the App Store